Simultaneous Nadir Overpasses (SNOs) Predictions

Prediction of SNOs between METOP-B and NOAA-19 Satellite Orbit:

Table of predicted SNOs for the next 14.0 days since TLE Epoch: 5/7/2022
Index Date (METOP-B) Time (METOP-B) Lat,Lon (METOP-B) SZA (METOP-B ) Date (NOAA-19) Time (NOAA-19) Lat,Lon (NOAA-19) SZA (NOAA-19 ) Distance(km) Time Diff (sec)
1 05/12/2022 01:35:00 -80.83, 9.25 115.66 05/12/2022 01:33:48 -80.82, 9.41 115.68 2.83 72
2 05/12/2022 02:25:41 80.82, 176.51 64.32 05/12/2022 02:24:46 80.82, 176.68 64.32 2.99 55
3 05/12/2022 03:16:22 -80.82, -16.25 115.70 05/12/2022 03:15:48 -80.82, -16.11 115.70 2.64 34
4 05/12/2022 04:07:03 80.81, 151.01 64.28 05/12/2022 04:06:46 80.82, 151.17 64.30 3.05 17
5 05/12/2022 04:57:44 -80.81, -41.75 115.74 05/12/2022 04:57:48 -80.82, -41.62 115.72 2.85 4
6 05/12/2022 05:48:24 80.82, 125.86 64.29 05/12/2022 05:48:45 80.82, 126.03 64.31 3.12 21
7 05/12/2022 06:39:05 -80.82, -66.90 115.74 05/12/2022 06:39:47 -80.82, -66.77 115.71 2.34 42



Historial Predications of SNOs between METOP-B and NOAA-19
